Satellite: TISAT-1
Catalog number: 36799
Epoch time: 14185.19041925
Element set: 329
Inclination: 098.0170 deg
RA of node: 277.3138 deg
Eccentricity: 0.0012061
Arg of perigee: 265.2211 deg
Mean anomaly: 094.7658 deg
Mean motion: 14.85718805 rev/day
Decay rate: 1.510e-05 rev/day^2
Epoch rev: 21524
Checksum: 300
Satellite: STUDSAT
Catalog number: 36801
Epoch time: 14184.37419407
Element set: 848
Inclination: 098.0371 deg
RA of node: 284.8523 deg
Eccentricity: 0.0007843
Arg of perigee: 228.5796 deg
Mean anomaly: 171.5303 deg
Mean motion: 14.96893150 rev/day
Decay rate: 1.0735e-04 rev/day^2
Epoch rev: 21555
Checksum: 319
Satellite: ALMASAT-1
Catalog number: 38078
Epoch time: 14184.23012971
Element set: 72
Inclination: 069.4687 deg
RA of node: 020.5741 deg
Eccentricity: 0.0590271
Arg of perigee: 010.4085 deg
Mean anomaly: 092.6472 deg
Mean motion: 14.50939760 rev/day
Decay rate: 2.8466e-04 rev/day^2
Epoch rev: 12396
Checksum: 309
Satellite: XATCOBEO
Catalog number: 38082
Epoch time: 14185.24797713
Element set: 367
Inclination: 069.4366 deg
RA of node: 267.6393 deg
Eccentricity: 0.0185192
Arg of perigee: 307.1561 deg
Mean anomaly: 083.3111 deg
Mean motion: 15.61854043 rev/day
Decay rate: 2.27614e-03 rev/day^2
Epoch rev: 12705
Checksum: 312
Satellite: CUBEBUG-1
Catalog number: 39153
Epoch time: 14185.15011244
Element set: 262
Inclination: 098.0438 deg
RA of node: 265.4203 deg
Eccentricity: 0.0016763
Arg of perigee: 298.7712 deg
Mean anomaly: 061.1860 deg
Mean motion: 14.77746222 rev/day
Decay rate: 7.08e-06 rev/day^2
Epoch rev: 6406
Checksum: 287
Satellite: ESTCUBE-1
Catalog number: 39161
Epoch time: 14185.17133034
Element set: 252
Inclination: 098.0965 deg
RA of node: 265.9429 deg
Eccentricity: 0.0009585
Arg of perigee: 351.8418 deg
Mean anomaly: 008.2673 deg
Mean motion: 14.70023597 rev/day
Decay rate: 5.75e-06 rev/day^2
Epoch rev: 6209
Checksum: 310
Satellite: DUCHIFAT-1
Catalog number: 40021
Epoch time: 14185.53109901
Element set: 34
Inclination: 097.9846 deg
RA of node: 080.1964 deg
Eccentricity: 0.0012462
Arg of perigee: 240.9550 deg
Mean anomaly: 119.0435 deg
Mean motion: 14.85311333 rev/day
Decay rate: 1.344e-05 rev/day^2
Epoch rev: 215
Checksum: 257
Satellite: NANOSATCBR1
Catalog number: 40024
Epoch time: 14185.12773027
Element set: 31
Inclination: 097.9823 deg
RA of node: 079.7852 deg
Eccentricity: 0.0011576
Arg of perigee: 242.4496 deg
Mean anomaly: 117.5590 deg
Mean motion: 14.85222394 rev/day
Decay rate: 1.204e-05 rev/day^2
Epoch rev: 209
Checksum: 284
Satellite: DTUSAT-2
Catalog number: 40030
Epoch time: 14185.13136204
Element set: 34
Inclination: 097.9806 deg
RA of node: 079.7792 deg
Eccentricity: 0.0011120
Arg of perigee: 233.6791 deg
Mean anomaly: 126.3416 deg
Mean motion: 14.84843277 rev/day
Decay rate: 9.25e-06 rev/day^2
Epoch rev: 210
Checksum: 271
Satellite: ANTELSAT
Catalog number: 40034
Epoch time: 14185.19594503
Element set: 28
Inclination: 097.9789 deg
RA of node: 079.5414 deg
Eccentricity: 0.0061717
Arg of perigee: 151.4440 deg
Mean anomaly: 209.0206 deg
Mean motion: 14.71183126 rev/day
Decay rate: 6.90e-06 rev/day^2
Epoch rev: 210
Checksum: 276
/EX
SB KEPS @ AMSAT $ORB14185.W
Orbital Elements 14185.WEATHER
HR AMSAT ORBITAL ELEMENTS FOR WEATHER SATELLITES
FROM WA5QGD FORT WORTH,TX July 4, 2014
BID: ORB14185.W
TO ALL RADIO AMATEURS BT
Satellite: MET-2/21
Catalog number: 22782
Epoch time: 14184.49424941
Element set: 99
Inclination: 082.5493 deg
RA of node: 160.3663 deg
Eccentricity: 0.0021609
Arg of perigee: 216.1344 deg
Mean anomaly: 262.2497 deg
Mean motion: 13.83738409 rev/day
Decay rate: 5.8e-07 rev/day^2
Epoch rev: 5237
Checksum: 313
Satellite: OKEAN-4
Catalog number: 23317
Epoch time: 14185.13253432
Element set: 577
Inclination: 082.5376 deg
RA of node: 052.0478 deg
Eccentricity: 0.0021478
Arg of perigee: 046.8538 deg
Mean anomaly: 069.0208 deg
Mean motion: 14.85562178 rev/day
Decay rate: 7.40e-06 rev/day^2
Epoch rev: 6562
Checksum: 306
Satellite: NOAA-14
Catalog number: 23455
Epoch time: 14184.34540998
Element set: 809
Inclination: 098.7781 deg
RA of node: 267.4949 deg
Eccentricity: 0.0009098
Arg of perigee: 000.2503 deg
Mean anomaly: 048.1486 deg
Mean motion: 14.13977352 rev/day
Decay rate: 2.0e-07 rev/day^2
Epoch rev: 623
Checksum: 315
Satellite: NOAA-15
Catalog number: 25338
Epoch time: 14184.48762759
Element set: 245
Inclination: 098.7526 deg
RA of node: 178.3146 deg
Eccentricity: 0.0011861
Arg of perigee: 101.2448 deg
Mean anomaly: 050.5353 deg
Mean motion: 14.25437641 rev/day
Decay rate: 2.13e-06 rev/day^2
Epoch rev: 83916
Checksum: 309
Satellite: RESURS
Catalog number: 25394
Epoch time: 14184.94366358
Element set: 695
Inclination: 098.4134 deg
RA of node: 148.6103 deg
Eccentricity: 0.0001442
Arg of perigee: 162.5878 deg
Mean anomaly: 265.8745 deg
Mean motion: 14.24395326 rev/day
Decay rate: -3.1e-07 rev/day^2
Epoch rev: 83070
Checksum: 314
Satellite: FENGYUN1
Catalog number: 25730
Epoch time: 14184.50269424
Element set: 183
Inclination: 098.9130 deg
RA of node: 145.4937 deg
Eccentricity: 0.0026646
Arg of perigee: 065.6498 deg
Mean anomaly: 050.8188 deg
Mean motion: 14.11934644 rev/day
Decay rate: 9.11e-06 rev/day^2
Epoch rev: 77982
Checksum: 325
Satellite: OKEAN-0
Catalog number: 25860
Epoch time: 14184.79047808
Element set: 292
Inclination: 098.0433 deg
RA of node: 148.5576 deg
Eccentricity: 0.0001475
Arg of perigee: 081.3859 deg
Mean anomaly: 338.6472 deg
Mean motion: 14.75297446 rev/day
Decay rate: 3.67e-06 rev/day^2
Epoch rev: 80460
Checksum: 335
Satellite: NOAA-16
Catalog number: 26536
Epoch time: 14184.29666197
Element set: 742
Inclination: 098.9893 deg
RA of node: 244.7303 deg
Eccentricity: 0.0011644
Arg of perigee: 136.9560 deg
Mean anomaly: 223.2525 deg
Mean motion: 14.13074138 rev/day
Decay rate: 6.4e-07 rev/day^2
Epoch rev: 71038
Checksum: 314
Satellite: NOAA-17
Catalog number: 27453
Epoch time: 14184.48599858
Element set: 641
Inclination: 098.3141 deg
RA of node: 183.3404 deg
Eccentricity: 0.0012895
Arg of perigee: 124.2651 deg
Mean anomaly: 235.9752 deg
Mean motion: 14.24753684 rev/day
Decay rate: 7.8e-07 rev/day^2
Epoch rev: 62500
Checksum: 325
Satellite: NOAA-18
Catalog number: 28654
Epoch time: 14184.48892116
Element set: 142
Inclination: 099.1485 deg
RA of node: 164.3163 deg
Eccentricity: 0.0013802
Arg of perigee: 214.6723 deg
Mean anomaly: 304.3297 deg
Mean motion: 14.12034393 rev/day
Decay rate: 7.7e-07 rev/day^2
Epoch rev: 46986
Checksum: 313
Satellite: NOAA-19
Catalog number: 33591
Epoch time: 14184.44660627
Element set: 293
Inclination: 098.9448 deg
RA of node: 129.4356 deg
Eccentricity: 0.0015152
Arg of perigee: 075.5751 deg
Mean anomaly: 062.4414 deg
Mean motion: 14.11732155 rev/day
Decay rate: 3.3e-07 rev/day^2
Epoch rev: 27828
Checksum: 309
/EX
SB KEPS @ AMSAT $ORB14185.M
Orbital Elements 14185.MISC
HR AMSAT ORBITAL ELEMENTS FOR MANNED AND MISCELLANEOUS SATELLITES
FROM WA5QGD FORT WORTH,TX July 4, 2014
BID: ORB14185.M
TO ALL RADIO AMATEURS BT
Satellite: HUBBLE
Catalog number: 20580
Epoch time: 14184.50351946
Element set: 47
Inclination: 028.4695 deg
RA of node: 289.8694 deg
Eccentricity: 0.0003323
Arg of perigee: 095.8067 deg
Mean anomaly: 004.2465 deg
Mean motion: 15.05495768 rev/day
Decay rate: 1.654e-05 rev/day^2
Epoch rev: 12717
Checksum: 316
